Voltar ao catálogo

BREEZE-M DEB

LostHEO
NORAD 48528·DEBRIS·🇷🇺 Russia

Lançado Feb 28, 2006 de Baikonur Cosmodrome

Loading…

Próximas Passagens (próximas 24 horas)

TLE

ObsoletoSource: Space-Track

Época: Jul 29, 2022, 10:09 UTC

1 48528U 06006DK  22210.42302644  .00001358  00000-0  18195-2 0  9994
2 48528  51.8849 196.6281 5050798 231.2953 337.1328  5.32252111190601

Acompanhe BREEZE-M DEB em tempo real com AllMySat

Download on the App Store